Location: Marcé
(47.5801°N, 0.3280°W)
Time: 12:41:41
(UTC+01:00)

ISS - Pass Details

Date: 01 November 2021
Orbit: 417 x 422 km, 51.6° (Epoch: 07 December)

Event Time Altitude Azimuth Distance (km) Brightness Sun altitude
Exits shadow 06:16:07 28° 316° (NW) 822 -2.7 -15.5°
Maximum altitude 06:17:20 40° 4° (N) 636 -2.9 -15.3°
Drops below altitude 10° 06:20:32 10° 75° (ENE) 1,499 0.2 -14.7°
Sets 06:22:43 0° 84° (E) 2,361 1.8 -14.4°
